,,Stat6,,Stat2,,Stat8,,Stat9,,Stat10,,Wind1,,Wind1,
time,status,PA1M_AVG,status,PR1M_SUM,status,RH1M_AVG,status,SR1M_AVG,status,TA1M_AVG,status,W1dAve1m,status,W1sAve1m,
2009-06-06, 00:00:00,VALID,917.38,VALID,0,VALID,100,VALID,0,VALID,20.362,VALID,332,VALID,0,
2009-06-06, 00:01:00,VALID,917.397,VALID,0,VALID,100,VALID,0,VALID,20.3239,VALID,334,VALID,0,
2009-06-06, 00:02:00,VALID,917.413,VALID,0,VALID,100,VALID,0,VALID,20.3076,VALID,334,VALID,0,
2009-06-06, 00:03:00,VALID,917.445,VALID,0,VALID,100,VALID,0,VALID,20.3401,VALID,334,VALID,0,
2009-06-06, 00:04:00,VALID,917.462,VALID,0,VALID,100,VALID,0,VALID,20.3466,VALID,334,VALID,0,
2009-06-06, 00:05:00,VALID,917.472,VALID,0,VALID,100,VALID,0,VALID,20.3431,VALID,334,VALID,0,
2009-06-06, 00:06:00,VALID,917.498,VALID,0,VALID,100,VALID,-0.0169808,VALID,20.3725,VALID,334,VALID,0,
2009-06-06, 00:07:00,VALID,917.493,VALID,0,VALID,100,VALID,-0.0169808,VALID,20.3953,VALID,334,VALID,0,
2009-06-06, 00:08:00,VALID,917.489,VALID,0,VALID,100,VALID,0,VALID,20.4042,VALID,334,VALID,0,
2009-06-06, 00:09:00,VALID,917.47,VALID,0,VALID,100,VALID,0.0339617,VALID,20.3947,VALID,334,VALID,0,
2009-06-06, 00:10:00,VALID,917.45,VALID,0,VALID,100,VALID,0,VALID,20.3983,VALID,334,VALID,0,
2009-06-06, 00:11:00,VALID,917.434,VALID,0,VALID,100,VALID,-0.0509425,VALID,20.3371,VALID,24,VALID,0,
2009-06-06, 00:12:00,VALID,917.429,VALID,0,VALID,100,VALID,-0.101885,VALID,20.3319,VALID,43,VALID,0,
2009-06-06, 00:13:00,VALID,917.422,VALID,0,VALID,100,VALID,-0.0849042,VALID,20.3284,VALID,47,VALID,0,
2009-06-06, 00:14:00,VALID,917.423,VALID,0,VALID,100,VALID,-0.101885,VALID,20.2892,VALID,47,VALID,0,
2009-06-06, 00:15:00,VALID,917.402,VALID,0,VALID,100,VALID,-0.118866,VALID,20.3284,VALID,46,VALID,0,
2009-06-06, 00:16:00,VALID,917.399,VALID,0,VALID,100,VALID,-0.118866,VALID,20.3279,VALID,46,VALID,0,
2009-06-06, 00:17:00,VALID,917.399,VALID,0,VALID,100,VALID,-0.101885,VALID,20.2887,VALID,46,VALID,0,
2009-06-06, 00:18:00,VALID,917.401,VALID,0,VALID,100,VALID,-0.101885,VALID,20.2502,VALID,46,VALID,0,
2009-06-06, 00:19:00,VALID,917.394,VALID,0,VALID,100,VALID,-0.0849042,VALID,20.263,VALID,46,VALID,0,
2009-06-06, 00:20:01,VALID,917.4,VALID,0,VALID,100,VALID,-0.118866,VALID,20.3219,VALID,46,VALID,0,
2009-06-06, 00:21:00,VALID,917.399,VALID,0,VALID,100,VALID,-0.118866,VALID,20.3254,VALID,46,VALID,0,
2009-06-06, 00:22:00,VALID,917.39,VALID,0,VALID,100,VALID,-0.0849042,VALID,20.3219,VALID,46,VALID,0,
2009-06-06, 00:23:00,VALID,917.385,VALID,0,VALID,100,VALID,-0.101885,VALID,20.3022,VALID,46,VALID,0,
2009-06-06, 00:24:00,VALID,917.391,VALID,0,VALID,100,VALID,0,VALID,20.2809,VALID,46,VALID,0,
2009-06-06, 00:25:01,VALID,917.392,VALID,0,VALID,100,VALID,0.0169808,VALID,20.2747,VALID,46,VALID,0,
2009-06-06, 00:26:00,VALID,917.389,VALID,0,VALID,100,VALID,-0.0509425,VALID,20.2592,VALID,46,VALID,0,
2009-06-06, 00:27:00,VALID,917.372,VALID,0,VALID,100,VALID,-0.101885,VALID,20.2505,VALID,46,VALID,0,
2009-06-06, 00:28:00,VALID,917.381,VALID,0,VALID,100,VALID,-0.101885,VALID,20.2078,VALID,15,VALID,0,
2009-06-06, 00:29:01,VALID,917.371,VALID,0,VALID,100,VALID,-0.118866,VALID,20.266,VALID,11,VALID,0.0572917,
2009-06-06, 00:30:01,VALID,917.383,VALID,0,VALID,100,VALID,-0.118866,VALID,20.3284,VALID,11,VALID,0,
2009-06-06, 00:31:01,VALID,917.387,VALID,0,VALID,100,VALID,-0.135847,VALID,20.3766,VALID,7,VALID,0,
2009-06-06, 00:32:00,VALID,917.397,VALID,0,VALID,100,VALID,-0.0849042,VALID,20.4093,VALID,3,VALID,0,
2009-06-06, 00:33:00,VALID,917.391,VALID,0,VALID,100,VALID,-0.101885,VALID,20.4317,VALID,4,VALID,0,
2009-06-06, 00:34:01,VALID,917.394,VALID,0,VALID,100,VALID,-0.118866,VALID,20.439,VALID,2,VALID,0,
2009-06-06, 00:35:00,VALID,917.367,VALID,0,VALID,100,VALID,-0.101885,VALID,20.4217,VALID,1,VALID,0,
2009-06-06, 00:36:01,VALID,917.361,VALID,0,VALID,100,VALID,-0.0849042,VALID,20.406,VALID,1,VALID,0,
2009-06-06, 00:37:00,VALID,917.358,VALID,0,VALID,100,VALID,-0.0849042,VALID,20.3796,VALID,1,VALID,0,
2009-06-06, 00:38:00,VALID,917.336,VALID,0,VALID,100,VALID,-0.101885,VALID,20.3768,VALID,1,VALID,0,
2009-06-06, 00:39:00,VALID,917.329,VALID,0,VALID,100,VALID,-0.101885,VALID,20.3831,VALID,1,VALID,0,
2009-06-06, 00:40:00,VALID,917.338,VALID,0,VALID,100,VALID,-0.0849042,VALID,20.3893,VALID,1,VALID,0,
2009-06-06, 00:41:00,VALID,917.344,VALID,0,VALID,100,VALID,-0.0679233,VALID,20.3401,VALID,1,VALID,0,
2009-06-06, 00:42:01,VALID,917.342,VALID,0,VALID,100,VALID,0,VALID,20.3558,VALID,1,VALID,0,
2009-06-06, 00:43:00,VALID,917.343,VALID,0,VALID,100,VALID,0.0169808,VALID,20.3269,VALID,1,VALID,0,
2009-06-06, 00:44:00,VALID,917.334,VALID,0,VALID,100,VALID,0.0169808,VALID,20.3041,VALID,1,VALID,0,
2009-06-06, 00:45:00,VALID,917.331,VALID,0,VALID,100,VALID,-0.0339617,VALID,20.3011,VALID,1,VALID,0,
2009-06-06, 00:46:01,VALID,917.328,VALID,0,VALID,100,VALID,-0.0169808,VALID,20.3174,VALID,355,VALID,0,
2009-06-06, 00:47:00,VALID,917.339,VALID,0,VALID,100,VALID,0,VALID,20.2976,VALID,355,VALID,0,
2009-06-06, 00:48:00,VALID,917.36,VALID,0,VALID,100,VALID,-0.0169808,VALID,20.2649,VALID,355,VALID,0,
2009-06-06, 00:49:00,VALID,917.372,VALID,0,VALID,100,VALID,0,VALID,20.2292,VALID,355,VALID,0,
2009-06-06, 00:50:00,VALID,917.379,VALID,0,VALID,100,VALID,0,VALID,20.2619,VALID,355,VALID,0,
2009-06-06, 00:51:00,VALID,917.364,VALID,0,VALID,100,VALID,0.0169808,VALID,20.3036,VALID,355,VALID,0,
2009-06-06, 00:52:00,VALID,917.364,VALID,0,VALID,100,VALID,0,VALID,20.3688,VALID,355,VALID,0,
2009-06-06, 00:53:01,VALID,917.367,VALID,0,VALID,100,VALID,0,VALID,20.4145,VALID,355,VALID,0,
2009-06-06, 00:54:00,VALID,917.358,VALID,0,VALID,100,VALID,-0.0169808,VALID,20.4404,VALID,355,VALID,0,
2009-06-06, 00:55:01,VALID,917.351,VALID,0,VALID,100,VALID,0,VALID,20.4269,VALID,21,VALID,0,
2009-06-06, 00:56:01,VALID,917.352,VALID,0,VALID,100,VALID,0,VALID,20.4267,VALID,11,VALID,0,
2009-06-06, 00:57:00,VALID,917.358,VALID,0,VALID,100,VALID,0.0339617,VALID,20.4659,VALID,1,VALID,0,
2009-06-06, 00:58:00,VALID,917.35,VALID,0,VALID,100,VALID,-0.0339617,VALID,20.4921,VALID,359,VALID,0,
2009-06-06, 00:59:00,VALID,917.346,VALID,0,VALID,100,VALID,-0.0169808,VALID,20.5121,VALID,5,VALID,0,
2009-06-06, 01:00:00,VALID,917.34,VALID,0,VALID,100,VALID,0.0169808,VALID,20.4894,VALID,14,VALID,0,
2009-06-06, 01:01:01,VALID,917.324,VALID,0,VALID,100,VALID,0,VALID,20.4926,VALID,7,VALID,0,
2009-06-06, 01:02:00,VALID,917.32,VALID,0,VALID,100,VALID,0,VALID,20.4924,VALID,344,VALID,0,
2009-06-06, 01:03:01,VALID,917.316,VALID,0,VALID,100,VALID,-0.0169808,VALID,20.4924,VALID,354,VALID,0,
2009-06-06, 01:04:00,VALID,917.31,VALID,0,VALID,100,VALID,0.0169808,VALID,20.4789,VALID,8,VALID,0.0301599,
2009-06-06, 01:05:01,VALID,917.3,VALID,0,VALID,100,VALID,0,VALID,20.4756,VALID,9,VALID,0,
2009-06-06, 01:06:00,VALID,917.293,VALID,0,VALID,100,VALID,0,VALID,20.4954,VALID,9,VALID,0,
2009-06-06, 01:07:01,VALID,917.284,VALID,0,VALID,100,VALID,0,VALID,20.5048,VALID,358,VALID,0,
2009-06-06, 01:08:00,VALID,917.276,VALID,0,VALID,100,VALID,0,VALID,20.5151,VALID,330,VALID,0,
2009-06-06, 01:09:01,VALID,917.281,VALID,0,VALID,100,VALID,0.0169808,VALID,20.5013,VALID,5,VALID,0,
2009-06-06, 01:10:01,VALID,917.257,VALID,0,VALID,100,VALID,0.0339617,VALID,20.5111,VALID,7,VALID,0.0419034,
2009-06-06, 01:11:01,VALID,917.25,VALID,0,VALID,100,VALID,-0.0169808,VALID,20.5251,VALID,7,VALID,0,
2009-06-06, 01:12:01,VALID,917.23,VALID,0,VALID,100,VALID,-0.0169808,VALID,20.5346,VALID,6,VALID,0,
2009-06-06, 01:13:01,VALID,917.208,VALID,0,VALID,100,VALID,-0.0169808,VALID,20.5638,VALID,5,VALID,0,
2009-06-06, 01:14:01,VALID,917.194,VALID,0,VALID,100,VALID,0,VALID,20.577,VALID,5,VALID,0,
2009-06-06, 01:15:01,VALID,917.187,VALID,0,VALID,100,VALID,-0.0169808,VALID,20.5835,VALID,5,VALID,0,
2009-06-06, 01:16:01,VALID,917.178,VALID,0,VALID,100,VALID,0.0169808,VALID,20.58,VALID,5,VALID,0,
2009-06-06, 01:17:01,VALID,917.183,VALID,0,VALID,100,VALID,0,VALID,20.5732,VALID,5,VALID,0,
2009-06-06, 01:18:01,VALID,917.178,VALID,0,VALID,100,VALID,0,VALID,20.576,VALID,5,VALID,0,
2009-06-06, 01:19:01,VALID,917.18,VALID,0,VALID,100,VALID,0,VALID,20.593,VALID,5,VALID,0,
2009-06-06, 01:20:01,VALID,917.166,VALID,0,VALID,100,VALID,0,VALID,20.596,VALID,5,VALID,0,
2009-06-06, 01:21:01,VALID,917.132,VALID,0,VALID,100,VALID,0,VALID,20.5825,VALID,5,VALID,0,
2009-06-06, 01:22:00,VALID,917.111,VALID,0,VALID,100,VALID,0,VALID,20.5927,VALID,5,VALID,0,
2009-06-06, 01:23:00,VALID,917.087,VALID,0,VALID,100,VALID,-0.0339617,VALID,20.58,VALID,7,VALID,0,
2009-06-06, 01:24:00,VALID,917.065,VALID,0,VALID,100,VALID,-0.0169808,VALID,20.5573,VALID,12,VALID,0,
2009-06-06, 01:25:00,VALID,917.038,VALID,0,VALID,100,VALID,-0.0339617,VALID,20.564,VALID,12,VALID,0,
2009-06-06, 01:26:00,VALID,917.023,VALID,0,VALID,100,VALID,0.0339617,VALID,20.5568,VALID,12,VALID,0,
2009-06-06, 01:27:00,VALID,917.012,VALID,0,VALID,100,VALID,-0.0169808,VALID,20.5508,VALID,12,VALID,0,
2009-06-06, 01:28:00,VALID,916.982,VALID,0,VALID,100,VALID,-0.0169808,VALID,20.5373,VALID,12,VALID,0,
2009-06-06, 01:29:00,VALID,916.976,VALID,0,VALID,100,VALID,0,VALID,20.5313,VALID,13,VALID,0,
2009-06-06, 01:30:00,VALID,916.962,VALID,0,VALID,100,VALID,-0.0169808,VALID,20.5381,VALID,19,VALID,0.0516387,
2009-06-06, 01:31:00,VALID,916.944,VALID,0,VALID,100,VALID,0,VALID,20.5378,VALID,19,VALID,0.0216619,
2009-06-06, 01:32:00,VALID,916.92,VALID,0,VALID,100,VALID,0,VALID,20.5416,VALID,22,VALID,0,
2009-06-06, 01:33:00,VALID,916.907,VALID,0,VALID,100,VALID,-0.0339617,VALID,20.5508,VALID,28,VALID,0,
2009-06-06, 01:34:00,VALID,916.892,VALID,0,VALID,100,VALID,-0.0339617,VALID,20.577,VALID,28,VALID,0,
2009-06-06, 01:35:00,VALID,916.87,VALID,0,VALID,100,VALID,-0.0339617,VALID,20.593,VALID,28,VALID,0,
2009-06-06, 01:36:00,VALID,916.843,VALID,0,VALID,100,VALID,-0.0169808,VALID,20.5995,VALID,28,VALID,0,
2009-06-06, 01:37:00,VALID,916.827,VALID,0,VALID,100,VALID,-0.0339617,VALID,20.5865,VALID,28,VALID,0,
2009-06-06, 01:38:00,VALID,916.817,VALID,0,VALID,100,VALID,-0.0509425,VALID,20.564,VALID,28,VALID,0,
2009-06-06, 01:39:00,VALID,916.797,VALID,0,VALID,100,VALID,0,VALID,20.5608,VALID,28,VALID,0,
2009-06-06, 01:40:00,VALID,916.783,VALID,0,VALID,100,VALID,0,VALID,20.5411,VALID,16,VALID,0,
2009-06-06, 01:41:00,VALID,916.79,VALID,0,VALID,100,VALID,-0.0679233,VALID,20.5118,VALID,11,VALID,0,
2009-06-06, 01:42:00,VALID,916.773,VALID,0,VALID,100,VALID,-0.0849042,VALID,20.5002,VALID,11,VALID,0,
2009-06-06, 01:43:00,VALID,916.756,VALID,0,VALID,100,VALID,-0.101885,VALID,20.4704,VALID,27,VALID,0,
2009-06-06, 01:44:00,VALID,916.751,VALID,0,VALID,100,VALID,-0.0679233,VALID,20.4796,VALID,28,VALID,0,
2009-06-06, 01:45:00,VALID,916.742,VALID,0,VALID,100,VALID,-0.0509425,VALID,20.4699,VALID,27,VALID,0,
2009-06-06, 01:46:00,VALID,916.715,VALID,0,VALID,100,VALID,-0.0339617,VALID,20.4796,VALID,27,VALID,0,
2009-06-06, 01:47:00,VALID,916.702,VALID,0,VALID,100,VALID,-0.0679233,VALID,20.4991,VALID,27,VALID,0,
2009-06-06, 01:48:00,VALID,916.692,VALID,0,VALID,100,VALID,-0.0509425,VALID,20.5156,VALID,27,VALID,0,
2009-06-06, 01:49:00,VALID,916.657,VALID,0,VALID,100,VALID,-0.0679233,VALID,20.5054,VALID,27,VALID,0,
2009-06-06, 01:50:00,VALID,916.652,VALID,0,VALID,100,VALID,-0.101885,VALID,20.5224,VALID,24,VALID,0,
2009-06-06, 01:51:00,VALID,916.646,VALID,0,VALID,100,VALID,-0.0679233,VALID,20.5221,VALID,23,VALID,0,
2009-06-06, 01:52:00,VALID,916.632,VALID,0,VALID,100,VALID,-0.0849042,VALID,20.5121,VALID,22,VALID,0.05625,
2009-06-06, 01:53:00,VALID,916.612,VALID,0,VALID,100,VALID,-0.0509425,VALID,20.4896,VALID,354,VALID,0.117551,
2009-06-06, 01:54:00,VALID,916.598,VALID,0,VALID,100,VALID,-0.0849042,VALID,20.4761,VALID,343,VALID,0,
2009-06-06, 01:55:00,VALID,916.574,VALID,0,VALID,100,VALID,-0.0679233,VALID,20.4699,VALID,28,VALID,0.00133384,
2009-06-06, 01:56:00,VALID,916.573,VALID,0,VALID,100,VALID,-0.0169808,VALID,20.4761,VALID,28,VALID,0.0853924,
2009-06-06, 01:57:00,VALID,916.559,VALID,0,VALID,100,VALID,-0.0509425,VALID,20.4764,VALID,353,VALID,0.00555556,
2009-06-06, 01:58:00,VALID,916.557,VALID,0,VALID,100,VALID,-0.0339617,VALID,20.4729,VALID,325,VALID,0.000952744,
2009-06-06, 01:59:00,VALID,916.546,VALID,0,VALID,100,VALID,-0.0339617,VALID,20.4861,VALID,269,VALID,0,
2009-06-06, 02:00:00,VALID,916.556,VALID,0,VALID,100,VALID,-0.0169808,VALID,20.5054,VALID,244,VALID,0,
2009-06-06, 02:01:00,VALID,916.54,VALID,0,VALID,100,VALID,0,VALID,20.5143,VALID,247,VALID,0,
2009-06-06, 02:02:00,VALID,916.536,VALID,0,VALID,100,VALID,-0.0339617,VALID,20.5278,VALID,252,VALID,0,
2009-06-06, 02:03:00,VALID,916.518,VALID,0,VALID,100,VALID,-0.0169808,VALID,20.5316,VALID,252,VALID,0,
2009-06-06, 02:04:00,VALID,916.511,VALID,0,VALID,100,VALID,-0.0509425,VALID,20.5343,VALID,252,VALID,0,
2009-06-06, 02:05:00,VALID,916.471,VALID,0,VALID,100,VALID,-0.0169808,VALID,20.5313,VALID,252,VALID,0,
2009-06-06, 02:06:00,VALID,916.438,VALID,0,VALID,100,VALID,-0.0509425,VALID,20.5153,VALID,252,VALID,0,
2009-06-06, 02:07:00,VALID,916.416,VALID,0,VALID,100,VALID,-0.0509425,VALID,20.5151,VALID,344,VALID,0,
2009-06-06, 02:08:00,VALID,916.385,VALID,0,VALID,100,VALID,-0.0509425,VALID,20.4986,VALID,19,VALID,0,
2009-06-06, 02:09:00,VALID,916.368,VALID,0,VALID,100,VALID,-0.0169808,VALID,20.5056,VALID,5,VALID,0,
2009-06-06, 02:10:00,VALID,916.375,VALID,0,VALID,100,VALID,-0.0679233,VALID,20.5121,VALID,320,VALID,0,
2009-06-06, 02:11:00,VALID,916.39,VALID,0,VALID,100,VALID,-0.0339617,VALID,20.5121,VALID,317,VALID,0,
2009-06-06, 02:12:00,VALID,916.391,VALID,0,VALID,100,VALID,-0.0679233,VALID,20.5121,VALID,317,VALID,0,
2009-06-06, 02:13:00,VALID,916.393,VALID,0,VALID,100,VALID,-0.0339617,VALID,20.5218,VALID,317,VALID,0,
2009-06-06, 02:14:00,VALID,916.37,VALID,0,VALID,100,VALID,-0.0679233,VALID,20.5448,VALID,337,VALID,0,
2009-06-06, 02:15:00,VALID,916.363,VALID,0,VALID,100,VALID,-0.0849042,VALID,20.5446,VALID,360,VALID,0,
2009-06-06, 02:16:00,VALID,916.356,VALID,0,VALID,100,VALID,-0.0849042,VALID,20.5348,VALID,360,VALID,0,
2009-06-06, 02:17:00,VALID,916.356,VALID,0,VALID,100,VALID,-0.0169808,VALID,20.5283,VALID,12,VALID,0,
2009-06-06, 02:18:00,VALID,916.334,VALID,0,VALID,100,VALID,-0.0679233,VALID,20.5316,VALID,28,VALID,0,
2009-06-06, 02:19:00,VALID,916.314,VALID,0,VALID,100,VALID,-0.0509425,VALID,20.5156,VALID,26,VALID,0.00223214,
2009-06-06, 02:20:00,VALID,916.307,VALID,0,VALID,100,VALID,-0.0509425,VALID,20.4859,VALID,26,VALID,0,
2009-06-06, 02:21:00,VALID,916.303,VALID,0,VALID,100,VALID,0,VALID,20.4667,VALID,30,VALID,0,
2009-06-06, 02:22:00,VALID,916.32,VALID,0,VALID,100,VALID,-0.0509425,VALID,20.4375,VALID,18,VALID,0.00334821,
2009-06-06, 02:23:00,VALID,916.333,VALID,0,VALID,100,VALID,-0.0509425,VALID,20.418,VALID,14,VALID,0,
2009-06-06, 02:24:00,VALID,916.308,VALID,0,VALID,100,VALID,-0.0849042,VALID,20.4177,VALID,13,VALID,0.0928622,
2009-06-06, 02:25:00,VALID,916.309,VALID,0,VALID,100,VALID,-0.0339617,VALID,20.4117,VALID,13,VALID,0,
2009-06-06, 02:26:00,VALID,916.312,VALID,0,VALID,100,VALID,-0.0509425,VALID,20.4082,VALID,15,VALID,0,
2009-06-06, 02:27:00,VALID,916.3,VALID,0,VALID,100,VALID,-0.0679233,VALID,20.3953,VALID,17,VALID,0,
2009-06-06, 02:28:00,VALID,916.299,VALID,0,VALID,100,VALID,-0.0509425,VALID,20.3853,VALID,25,VALID,0.0415396,
2009-06-06, 02:29:00,VALID,916.29,VALID,0,VALID,100,VALID,-0.0339617,VALID,20.392,VALID,29,VALID,0.00546875,
2009-06-06, 02:30:00,VALID,916.282,VALID,0,VALID,100,VALID,-0.0509425,VALID,20.3985,VALID,25,VALID,0,
2009-06-06, 02:31:00,VALID,916.267,VALID,0,VALID,100,VALID,-0.0679233,VALID,20.4182,VALID,25,VALID,0,
2009-06-06, 02:32:00,VALID,916.233,VALID,0,VALID,100,VALID,-0.0849042,VALID,20.4377,VALID,25,VALID,0,
2009-06-06, 02:33:00,VALID,916.207,VALID,0,VALID,100,VALID,-0.0339617,VALID,20.4667,VALID,25,VALID,0,
2009-06-06, 02:34:00,VALID,916.171,VALID,0,VALID,100,VALID,-0.0509425,VALID,20.4867,VALID,25,VALID,0,
2009-06-06, 02:35:00,VALID,916.15,VALID,0,VALID,100,VALID,-0.0509425,VALID,20.5026,VALID,25,VALID,0,
2009-06-06, 02:36:00,VALID,916.15,VALID,0,VALID,100,VALID,-0.101885,VALID,20.5056,VALID,25,VALID,0,
2009-06-06, 02:37:00,VALID,916.151,VALID,0,VALID,100,VALID,-0.0509425,VALID,20.5089,VALID,23,VALID,0,
2009-06-06, 02:38:00,VALID,916.17,VALID,0,VALID,100,VALID,-0.0849042,VALID,20.5153,VALID,354,VALID,0,
2009-06-06, 02:39:00,VALID,916.177,VALID,0,VALID,100,VALID,-0.0509425,VALID,20.5256,VALID,344,VALID,0,
2009-06-06, 02:40:00,VALID,916.179,VALID,0,VALID,100,VALID,-0.0509425,VALID,20.5453,VALID,344,VALID,0,
2009-06-06, 02:41:00,VALID,916.158,VALID,0,VALID,100,VALID,-0.0169808,VALID,20.5338,VALID,344,VALID,0,
2009-06-06, 02:42:00,VALID,916.14,VALID,0,VALID,100,VALID,0.0509425,VALID,20.5268,VALID,13,VALID,0,
2009-06-06, 02:43:00,VALID,916.127,VALID,0,VALID,100,VALID,-0.0169808,VALID,20.5268,VALID,43,VALID,0,
2009-06-06, 02:44:00,VALID,916.14,VALID,0,VALID,100,VALID,0.0169808,VALID,20.53,VALID,42,VALID,0,
2009-06-06, 02:45:00,VALID,916.126,VALID,0,VALID,100,VALID,0.0169808,VALID,20.5173,VALID,35,VALID,0,
2009-06-06, 02:46:00,VALID,916.172,VALID,0,VALID,100,VALID,0,VALID,20.4786,VALID,35,VALID,0,
2009-06-06, 02:47:00,VALID,916.178,VALID,0,VALID,100,VALID,0.0169808,VALID,20.4716,VALID,33,VALID,0,
2009-06-06, 02:48:00,VALID,916.187,VALID,0,VALID,100,VALID,0.0169808,VALID,20.4813,VALID,33,VALID,0,
2009-06-06, 02:49:00,VALID,916.162,VALID,0,VALID,100,VALID,0.0509425,VALID,20.4719,VALID,40,VALID,0.0790777,
2009-06-06, 02:50:00,VALID,916.156,VALID,0,VALID,100,VALID,0.0509425,VALID,20.4262,VALID,335,VALID,0.205915,
2009-06-06, 02:51:00,VALID,916.169,VALID,0,VALID,100,VALID,0.0509425,VALID,20.4129,VALID,241,VALID,0.00260417,
2009-06-06, 02:52:00,VALID,916.18,VALID,0,VALID,100,VALID,0.0339617,VALID,20.3967,VALID,239,VALID,0,
2009-06-06, 02:53:00,VALID,916.187,VALID,0,VALID,100,VALID,0.0509425,VALID,20.3935,VALID,238,VALID,0,
2009-06-06, 02:54:00,VALID,916.191,VALID,0,VALID,100,VALID,0.0339617,VALID,20.3872,VALID,263,VALID,0,
2009-06-06, 02:55:00,VALID,916.186,VALID,0,VALID,100,VALID,0.0339617,VALID,20.384,VALID,276,VALID,0,
2009-06-06, 02:56:00,VALID,916.176,VALID,0,VALID,100,VALID,0,VALID,20.414,VALID,351,VALID,0,
2009-06-06, 02:57:00,VALID,916.153,VALID,0,VALID,100,VALID,-0.0679233,VALID,20.4212,VALID,4,VALID,0,
2009-06-06, 02:58:00,VALID,916.14,VALID,0,VALID,100,VALID,-0.0509425,VALID,20.4245,VALID,6,VALID,0,
2009-06-06, 02:59:00,VALID,916.137,VALID,0,VALID,100,VALID,-0.0849042,VALID,20.4442,VALID,6,VALID,0,
2009-06-06, 03:00:00,VALID,916.143,VALID,0,VALID,100,VALID,-0.0509425,VALID,20.4439,VALID,6,VALID,0,
2009-06-06, 03:01:00,VALID,916.14,VALID,0,VALID,100,VALID,-0.0509425,VALID,20.4502,VALID,6,VALID,0,
2009-06-06, 03:02:00,VALID,916.134,VALID,0,VALID,100,VALID,-0.0169808,VALID,20.4599,VALID,317,VALID,0,
2009-06-06, 03:03:00,VALID,916.131,VALID,0,VALID,100,VALID,-0.0509425,VALID,20.4564,VALID,244,VALID,0.00223214,
2009-06-06, 03:04:00,VALID,916.096,VALID,0,VALID,100,VALID,-0.0169808,VALID,20.4467,VALID,253,VALID,0,
2009-06-06, 03:05:00,VALID,916.073,VALID,0,VALID,100,VALID,-0.0849042,VALID,20.4634,VALID,282,VALID,0,
2009-06-06, 03:06:00,VALID,916.052,VALID,0,VALID,100,VALID,-0.0509425,VALID,20.4959,VALID,360,VALID,0.125908,
2009-06-06, 03:07:00,VALID,916.028,VALID,0,VALID,100,VALID,-0.0339617,VALID,20.4856,VALID,14,VALID,0.411523,
2009-06-06, 03:08:00,VALID,916.023,VALID,0,VALID,100,VALID,-0.0679233,VALID,20.4307,VALID,28,VALID,0.0182292,
2009-06-06, 03:09:00,VALID,916.021,VALID,0,VALID,100,VALID,-0.0849042,VALID,20.379,VALID,17,VALID,0,
2009-06-06, 03:10:00,VALID,916.001,VALID,0,VALID,100,VALID,-0.0169808,VALID,20.3396,VALID,12,VALID,0,
2009-06-06, 03:11:00,VALID,915.994,VALID,0,VALID,100,VALID,0.0339617,VALID,20.3196,VALID,12,VALID,0,
2009-06-06, 03:12:00,VALID,915.975,VALID,0,VALID,100,VALID,0.0339617,VALID,20.2861,VALID,16,VALID,0,
2009-06-06, 03:13:00,VALID,915.948,VALID,0,VALID,100,VALID,0.0169808,VALID,20.2769,VALID,28,VALID,0,
2009-06-06, 03:14:00,VALID,915.941,VALID,0,VALID,100,VALID,0.0169808,VALID,20.2509,VALID,21,VALID,0,
2009-06-06, 03:15:00,VALID,915.942,VALID,0,VALID,100,VALID,0,VALID,20.2317,VALID,22,VALID,0,
2009-06-06, 03:16:00,VALID,915.926,VALID,0,VALID,100,VALID,0.0169808,VALID,20.2087,VALID,22,VALID,0,
2009-06-06, 03:17:00,VALID,915.906,VALID,0,VALID,100,VALID,0.0339617,VALID,20.1958,VALID,22,VALID,0,
2009-06-06, 03:18:00,VALID,915.897,VALID,0,VALID,100,VALID,0.0169808,VALID,20.1828,VALID,22,VALID,0,
2009-06-06, 03:19:00,VALID,915.896,VALID,0,VALID,100,VALID,0.0509425,VALID,20.1698,VALID,21,VALID,0,
2009-06-06, 03:20:00,VALID,915.913,VALID,0,VALID,100,VALID,0.0339617,VALID,20.1633,VALID,9,VALID,0,
2009-06-06, 03:21:00,VALID,915.94,VALID,0,VALID,100,VALID,0.0339617,VALID,20.1568,VALID,7,VALID,0,
2009-06-06, 03:22:00,VALID,915.956,VALID,0,VALID,100,VALID,0.0169808,VALID,20.1471,VALID,7,VALID,0,
2009-06-06, 03:23:00,VALID,915.975,VALID,0,VALID,100,VALID,0.0509425,VALID,20.1371,VALID,7,VALID,0,
2009-06-06, 03:24:00,VALID,915.955,VALID,0,VALID,100,VALID,0.0339617,VALID,20.1179,VALID,7,VALID,0,
2009-06-06, 03:25:00,VALID,915.955,VALID,0,VALID,100,VALID,0.0849042,VALID,20.0889,VALID,7,VALID,0,
2009-06-06, 03:26:00,VALID,915.92,VALID,0,VALID,100,VALID,-0.0169808,VALID,20.0567,VALID,7,VALID,0.0701265,
2009-06-06, 03:27:00,VALID,915.922,VALID,0,VALID,100,VALID,-0.0849042,VALID,20.0058,VALID,7,VALID,0,
2009-06-06, 03:28:00,VALID,915.905,VALID,0,VALID,100,VALID,-0.0169808,VALID,19.9569,VALID,7,VALID,0,
2009-06-06, 03:29:00,VALID,915.92,VALID,0,VALID,100,VALID,-0.0509425,VALID,19.908,VALID,7,VALID,0,
2009-06-06, 03:30:00,VALID,915.918,VALID,0,VALID,100,VALID,-0.0339617,VALID,19.866,VALID,7,VALID,0,
2009-06-06, 03:31:00,VALID,915.925,VALID,0,VALID,100,VALID,-0.0169808,VALID,19.8201,VALID,7,VALID,0,
2009-06-06, 03:32:00,VALID,915.941,VALID,0,VALID,100,VALID,-0.0339617,VALID,19.7582,VALID,7,VALID,0,
2009-06-06, 03:33:00,VALID,915.948,VALID,0,VALID,100,VALID,-0.0509425,VALID,19.7193,VALID,7,VALID,0,
2009-06-06, 03:34:00,VALID,915.972,VALID,0,VALID,100,VALID,-0.0339617,VALID,19.7038,VALID,7,VALID,0,
2009-06-06, 03:35:00,VALID,915.993,VALID,0,VALID,100,VALID,-0.0339617,VALID,19.6611,VALID,7,VALID,0,
2009-06-06, 03:36:00,VALID,915.991,VALID,0,VALID,100,VALID,-0.0509425,VALID,19.6222,VALID,7,VALID,0,
2009-06-06, 03:37:00,VALID,915.974,VALID,0,VALID,100,VALID,-0.0679233,VALID,19.5967,VALID,7,VALID,0,
2009-06-06, 03:38:00,VALID,915.969,VALID,0,VALID,100,VALID,-0.0509425,VALID,19.603,VALID,7,VALID,0,
2009-06-06, 03:39:00,VALID,915.949,VALID,0,VALID,100,VALID,-0.0509425,VALID,19.6384,VALID,7,VALID,0,
2009-06-06, 03:40:00,VALID,915.935,VALID,0,VALID,100,VALID,-0.0509425,VALID,19.6387,VALID,7,VALID,0,
2009-06-06, 03:41:00,VALID,915.917,VALID,0,VALID,100,VALID,-0.0339617,VALID,19.5703,VALID,7,VALID,0,
2009-06-06, 03:42:00,VALID,915.886,VALID,0,VALID,100,VALID,0,VALID,19.5313,VALID,7,VALID,0,
2009-06-06, 03:43:00,VALID,915.871,VALID,0,VALID,100,VALID,-0.0339617,VALID,19.4924,VALID,7,VALID,0,
2009-06-06, 03:44:00,VALID,915.883,VALID,0,VALID,100,VALID,0,VALID,19.4797,VALID,7,VALID,0,
2009-06-06, 03:45:00,VALID,915.895,VALID,0,VALID,100,VALID,-0.0169808,VALID,19.5056,VALID,7,VALID,0,
2009-06-06, 03:46:00,VALID,915.932,VALID,0,VALID,100,VALID,0,VALID,19.4991,VALID,7,VALID,0,
2009-06-06, 03:47:00,VALID,915.961,VALID,0,VALID,100,VALID,-0.0169808,VALID,19.4956,VALID,7,VALID,0,
2009-06-06, 03:48:00,VALID,915.958,VALID,0,VALID,100,VALID,-0.0169808,VALID,19.4956,VALID,7,VALID,0,
2009-06-06, 03:49:00,VALID,915.959,VALID,0,VALID,100,VALID,-0.0169808,VALID,19.4991,VALID,7,VALID,0,
2009-06-06, 03:50:00,VALID,915.95,VALID,0,VALID,100,VALID,0,VALID,19.4822,VALID,7,VALID,0,
2009-06-06, 03:51:00,VALID,915.96,VALID,0,VALID,100,VALID,-0.0169808,VALID,19.4789,VALID,18,VALID,0,
2009-06-06, 03:52:00,VALID,915.992,VALID,0,VALID,100,VALID,0,VALID,19.4437,VALID,61,VALID,0.0390625,
2009-06-06, 03:53:00,VALID,916.025,VALID,0,VALID,100,VALID,0,VALID,19.411,VALID,62,VALID,0.0102307,